SENTINEL-3B (43437 NORAD) Tracking and Keplerian Element Data

This shows tracking and keplerian element data for the satellite.

Feedback or suggestion? Click here.




ElementValue
Catalog43437
NameSENTINEL-3B
Epoch Orbit17823
Epoch Day269.76570171
Epoch Year2021
RAAN335.8246
Inclination98.6201
Eccentricity7.16E-05
Argument of Perigee94.891
Mean Anonmoly265.2352
Mean Motion14.26740385
Decay Rate1.5E-07
L11 43437U 18039A 21269.76570171 .00000015 00000-0 24142-4 0 9999
L22 43437 98.6201 335.8246 0000716 94.8910 265.2352 14.26740385178231

Live tracking and technical data element details for SENTINEL-3B (NORAD 43437). SENTINEL-3B can be tracked NOW for your location showing map with azimuth and elevation plus other details from your city location.

Track the satellite on the map from your city or location and see movement details for azimuth, elevation, latitude, longitude, range, height, and movement on the map or in text.







IsCatalogInMostPopularTable: catalog: 43437, numindb: 681
Update: records affected: 1



GetName: 43437 SENTINEL-3B

Hit Count: updated at: Tue, 28 Sep 2021 16:33:21 GMT